{"data":{"norad_id":59513,"intl_designator":"2024-073C","name":"STARLINK-31658","alt_names":[],"object_type":"PAYLOAD","status":"ACTIVE","operator":null,"country":"US","launch_date":"2024-04-17","launch_site_code":"AFETR","launch_vehicle":null,"mission":null,"orbit_class":"UNKNOWN","rcs_meters":null,"size_class":null,"mass_kg":null,"dimensions":null,"purposes":["comms"],"wikipedia_slug":null,"has_3d_model":false,"image_url":null,"decayed_at":null,"tle_current":{"epoch":"2026-09-21T00:30:46.692864Z","epoch_age_seconds":120337,"freshness":"FRESH","line1":"1 59513U 24073C   26264.02137376  .00004046  00000+0  15642-3 0  9992","line2":"2 59513  43.0020 254.6184 0000797 311.7722  48.3061 15.27585972136508","mean_motion":15.27585972,"eccentricity":7.97e-5,"inclination_deg":43.002,"raan_deg":254.6184,"arg_perigee_deg":311.7722,"mean_anomaly_deg":48.3061,"bstar":0.00015642,"rev_number":13650,"period_min":94.266380183805,"perigee_km":482.48437867486,"apogee_km":483.57804888813,"semimajor_km":6861.1682137815,"source":"CELESTRAK","updated_at":"2026-09-22T09:00:48.962738Z"}}}